カタログに戻る

STARLINK-3648

運用中通信VLEO
NORAD 51993·PAYLOAD·🇺🇸 United States

打ち上げ Mar 9, 2022 から Cape Canaveral Space Force Station

Loading…

次のパス (今後24時間)

TLE

最新Source: CelesTrak SupGP

元期: Sep 15, 2026, 01:50 UTC

1 51993C 22025AP  26258.07687500 -.00035033  00000+0 -10020-2 0  2582
2 51993  53.1580 260.8018 0001254  97.3941 173.3924 15.35425778    18

AllMySatでSTARLINK-3648をリアルタイム追跡

Download on the App Store